Tiempo cada hora Barstow

Hoy, 25 Febrero, Jueves

Tiempo Temperatura Precipitaciones Viento Presión Humedad
00:00 +8°C° 0 mm 6 mps 706 mmHg 22%
01:00 +7°C° 0 mm 6 mps 707 mmHg 23%
02:00 +6°C° 0 mm 5 mps 707 mmHg 22%
03:00 +5°C° 0 mm 4 mps 707 mmHg 22%
04:00 +5°C° 0 mm 3 mps 707 mmHg 23%
05:00 +5°C° 0 mm 3 mps 707 mmHg 23%
06:00 +4°C° 0 mm 3 mps 707 mmHg 23%
07:00 +4°C° 0 mm 3 mps 707 mmHg 24%
08:00 +5°C° 0 mm 4 mps 708 mmHg 20%
09:00 +7°C° 0 mm 6 mps 708 mmHg 17%
10:00 +8°C° 0 mm 7 mps 708 mmHg 13%
11:00 +9°C° 0 mm 6 mps 708 mmHg 12%
12:00 +10°C° 0 mm 5 mps 707 mmHg 10%
13:00 +12°C° 0 mm 5 mps 706 mmHg 9%
14:00 +13°C° 0 mm 4 mps 706 mmHg 8%
15:00 +13°C° 0 mm 4 mps 705 mmHg 8%
16:00 +14°C° 0 mm 3 mps 704 mmHg 7%
17:00 +14°C° 0 mm 2 mps 704 mmHg 9%
18:00 +12°C° 0 mm 1 mps 704 mmHg 11%
19:00 +10°C° 0 mm 0 mps 704 mmHg 12%
20:00 +10°C° 0 mm 0 mps 704 mmHg 13%
21:00 +9°C° 0 mm 0 mps 704 mmHg 14%
22:00 +8°C° 0 mm 0 mps 704 mmHg 15%
23:00 +9°C° 0 mm 1 mps 704 mmHg 15%

Mañana, 26 Febrero, Viernes

Tiempo Temperatura Precipitaciones Viento Presión Humedad
00:00 +9°C° 0 mm 1 mps 704 mmHg 14%
01:00 +8°C° 0 mm 1 mps 704 mmHg 14%
02:00 +8°C° 0 mm 1 mps 703 mmHg 14%
03:00 +7°C° 0 mm 1 mps 703 mmHg 14%
04:00 +7°C° 0 mm 1 mps 702 mmHg 15%
05:00 +7°C° 0 mm 1 mps 703 mmHg 15%
06:00 +7°C° 0 mm 1 mps 703 mmHg 16%
07:00 +7°C° 0 mm 1 mps 703 mmHg 16%
08:00 +10°C° 0 mm 1 mps 703 mmHg 14%
09:00 +12°C° 0 mm 1 mps 704 mmHg 12%
10:00 +15°C° 0 mm 1 mps 704 mmHg 10%
11:00 +16°C° 0 mm 1 mps 703 mmHg 9%
12:00 +18°C° 0 mm 1 mps 703 mmHg 9%
13:00 +20°C° 0 mm 1 mps 702 mmHg 8%
14:00 +20°C° 0 mm 2 mps 702 mmHg 9%
15:00 +20°C° 0 mm 4 mps 701 mmHg 9%
16:00 +21°C° 0 mm 5 mps 700 mmHg 10%
17:00 +20°C° 0 mm 6 mps 700 mmHg 13%
18:00 +17°C° 0 mm 7 mps 700 mmHg 16%
19:00 +16°C° 0 mm 8 mps 699 mmHg 19%
20:00 +15°C° 0 mm 7 mps 699 mmHg 20%
21:00 +14°C° 0 mm 7 mps 699 mmHg 22%
22:00 +12°C° 0 mm 7 mps 700 mmHg 24%
23:00 +11°C° 0 mm 6 mps 699 mmHg 27%

Pasado mañana, 27 Febrero, Sábado

Tiempo Temperatura Precipitaciones Viento Presión Humedad
00:00 +10°C° 0 mm 5 mps 699 mmHg 30%
01:00 +11°C° 0 mm 4 mps 699 mmHg 32%
02:00 +10°C° 0 mm 4 mps 698 mmHg 35%
03:00 +9°C° 0 mm 3 mps 698 mmHg 38%
04:00 +8°C° 0 mm 2 mps 698 mmHg 41%
05:00 +8°C° 0 mm 2 mps 698 mmHg 45%
06:00 +8°C° 0 mm 2 mps 698 mmHg 48%
07:00 +7°C° 0 mm 2 mps 699 mmHg 52%
08:00 +9°C° 0 mm 2 mps 699 mmHg 47%
09:00 +10°C° 0 mm 2 mps 699 mmHg 43%
10:00 +13°C° 0 mm 2 mps 700 mmHg 38%
11:00 +14°C° 0 mm 2 mps 700 mmHg 33%
12:00 +16°C° 0 mm 2 mps 700 mmHg 28%
13:00 +17°C° 0 mm 2 mps 700 mmHg 23%
14:00 +17°C° 0 mm 2 mps 700 mmHg 21%
15:00 +18°C° 0 mm 2 mps 699 mmHg 19%
16:00 +18°C° 0 mm 2 mps 699 mmHg 16%
17:00 +17°C° 0 mm 2 mps 700 mmHg 17%
18:00 +16°C° 0 mm 3 mps 700 mmHg 18%
19:00 +14°C° 0 mm 4 mps 700 mmHg 18%
20:00 +13°C° 0 mm 5 mps 701 mmHg 17%
21:00 +11°C° 0 mm 7 mps 702 mmHg 16%
22:00 +10°C° 0 mm 9 mps 702 mmHg 15%
23:00 +9°C° 0 mm 8 mps 703 mmHg 16%

28 Febrero, Domingo

Tiempo Temperatura Precipitaciones Viento Presión Humedad
00:00 +8°C° 0 mm 7 mps 703 mmHg 18%
01:00 +7°C° 0 mm 6 mps 703 mmHg 20%
02:00 +7°C° 0 mm 6 mps 704 mmHg 22%
03:00 +6°C° 0 mm 5 mps 704 mmHg 25%
04:00 +5°C° 0 mm 4 mps 704 mmHg 27%
05:00 +5°C° 0 mm 4 mps 705 mmHg 27%
06:00 +4°C° 0 mm 4 mps 705 mmHg 28%
07:00 +4°C° 0 mm 4 mps 706 mmHg 28%
08:00 +4°C° 0 mm 6 mps 706 mmHg 23%
09:00 +6°C° 0 mm 7 mps 707 mmHg 18%
10:00 +7°C° 0 mm 9 mps 707 mmHg 13%
11:00 +8°C° 0 mm 9 mps 707 mmHg 11%
12:00 +10°C° 0 mm 8 mps 706 mmHg 10%
13:00 +11°C° 0 mm 8 mps 706 mmHg 9%
14:00 +12°C° 0 mm 7 mps 706 mmHg 9%
15:00 +12°C° 0 mm 7 mps 705 mmHg 8%
16:00 +12°C° 0 mm 7 mps 705 mmHg 8%
17:00 +11°C° 0 mm 6 mps 705 mmHg 10%
18:00 +10°C° 0 mm 5 mps 705 mmHg 11%
19:00 +10°C° 0 mm 3 mps 706 mmHg 12%
20:00 +9°C° 0 mm 3 mps 706 mmHg 13%
21:00 +9°C° 0 mm 2 mps 706 mmHg 13%
22:00 +8°C° 0 mm 2 mps 706 mmHg 14%
23:00 +8°C° 0 mm 1 mps 706 mmHg 15%

1 Marzo, Lunes

Tiempo Temperatura Precipitaciones Viento Presión Humedad
00:00 +8°C° 0 mm 1 mps 705 mmHg 15%
01:00 +7°C° 0 mm 1 mps 705 mmHg 16%
02:00 +7°C° 0 mm 1 mps 705 mmHg 16%
03:00 +7°C° 0 mm 1 mps 705 mmHg 16%
04:00 +6°C° 0 mm 1 mps 705 mmHg 17%
05:00 +6°C° 0 mm 2 mps 705 mmHg 17%
06:00 +6°C° 0 mm 2 mps 705 mmHg 17%
07:00 +6°C° 0 mm 2 mps 705 mmHg 18%
08:00 +8°C° 0 mm 2 mps 706 mmHg 15%
09:00 +10°C° 0 mm 3 mps 706 mmHg 13%
10:00 +12°C° 0 mm 4 mps 706 mmHg 11%
11:00 +13°C° 0 mm 4 mps 706 mmHg 10%
12:00 +14°C° 0 mm 5 mps 706 mmHg 9%
13:00 +16°C° 0 mm 5 mps 705 mmHg 8%
14:00 +16°C° 0 mm 5 mps 705 mmHg 8%
15:00 +16°C° 0 mm 5 mps 705 mmHg 8%
16:00 +16°C° 0 mm 5 mps 704 mmHg 8%
17:00 +15°C° 0 mm 5 mps 704 mmHg 9%
18:00 +14°C° 0 mm 4 mps 704 mmHg 10%
19:00 +12°C° 0 mm 3 mps 704 mmHg 11%
20:00 +13°C° 0 mm 2 mps 704 mmHg 12%
21:00 +12°C° 0 mm 2 mps 704 mmHg 13%
22:00 +10°C° 0 mm 2 mps 704 mmHg 13%
23:00 +9°C° 0 mm 2 mps 703 mmHg 14%

2 Marzo, Martes

Tiempo Temperatura Precipitaciones Viento Presión Humedad
00:00 +10°C° 0 mm 1 mps 703 mmHg 15%
01:00 +9°C° 0 mm 1 mps 703 mmHg 17%
02:00 +9°C° 0 mm 1 mps 702 mmHg 17%
03:00 +8°C° 0 mm 1 mps 702 mmHg 18%
04:00 +8°C° 0 mm 1 mps 701 mmHg 19%
05:00 +8°C° 0 mm 1 mps 701 mmHg 20%
06:00 +8°C° 0 mm 1 mps 701 mmHg 20%
07:00 +8°C° 0 mm 1 mps 701 mmHg 21%
08:00 +11°C° 0 mm 1 mps 702 mmHg 18%
09:00 +13°C° 0 mm 2 mps 702 mmHg 15%
10:00 +16°C° 0 mm 2 mps 703 mmHg 12%
11:00 +17°C° 0 mm 2 mps 702 mmHg 11%
12:00 +18°C° 0 mm 3 mps 702 mmHg 11%
13:00 +19°C° 0 mm 3 mps 702 mmHg 10%
14:00 +19°C° 0 mm 3 mps 701 mmHg 10%
15:00 +20°C° 0 mm 3 mps 701 mmHg 10%
16:00 +20°C° 0 mm 2 mps 701 mmHg 10%
17:00 +19°C° 0 mm 2 mps 701 mmHg 11%
18:00 +17°C° 0 mm 2 mps 701 mmHg 13%
19:00 +16°C° 0 mm 2 mps 701 mmHg 15%
20:00 +15°C° 0 mm 2 mps 701 mmHg 16%
21:00 +14°C° 0 mm 2 mps 701 mmHg 17%
22:00 +14°C° 0 mm 2 mps 701 mmHg 19%
23:00 +13°C° 0 mm 1 mps 700 mmHg 20%
Mostrar más

Necesitamos Su Consentimiento

Meteoprog y nuestros Proveedores de Servicios pueden almacenar y acceder a sus datos personales como cookies, identificadores de dispositivo u otras tecnologías similares de su dispositivo y procesar dichos datos para personalizar contenido y anuncios, además de ofrecer funciones de redes sociales y analizar el tráfico.

  • Almacenar y/o acceder a información en su dispositivo

    Se puede almacenar o acceder a cookies, identificadores de dispositivo u otra información de su dispositivo para los fines anteriormente indicados.

  • Anuncios y contenido personalizados, medición de anuncios y contenido, percepciones del público, y desarrollo de productos

    Los anuncios y el contenido pueden personalizarse en base a su perfil. Se pueden añadir más datos para personalizar mejor los anuncios y contenidos. Se puede medir el rendimiento de los anuncios y contenidos. Se puede obtener la percepción sobre el público que ha visto los anuncios y contenidos. Dichos datos pueden usarse para desarrollar o mejorar la experiencia del usuario, sistemas y software.

Al hacer clic en ‘Estoy De Acuerdo’ usted permitirá el uso de las cookies, identificadores de dispositivo, balizas web u otras tecnologías similares indicadas. Su configuración puede cambiarse desde el navegador de su dispositivo.

Para ciertos fines, los intereses legítimos pueden ser considerados por encima del consentimiento. Puede leer más sobre ello en nuestra Política de Privacidad y Cookies.